| time (UTC) | temp C | wind direction | speed KPH | gust KPH | rain 1hr cm | rain 24hr cm | rain mn cm | humidity % | barometer mb |
| 20260504220107 | 25 | 244 | 0.0 | 6.4 | 0.00 | 0.00 | 0.00 | 51 | 1014.2 |
| 20260504214601 | 25 | 260 | 0.0 | 4.8 | 0.00 | 0.00 | 0.00 | 53 | 1014.6 |
| 20260504213111 | 25 | 231 | 0.0 | 4.8 | 0.00 | 0.00 | 0.00 | 53 | 1014.5 |
| 20260504211557 | 24 | 255 | 0.0 | 4.8 | 0.00 | 0.00 | 0.00 | 54 | 1014.5 |
| 20260504210101 | 25 | 243 | 0.0 | 1.6 | 0.00 | 0.00 | 0.00 | 52 | 1014.7 |
| 20260504204602 | 25 | 248 | 0.0 | 6.4 | 0.00 | 0.00 | 0.00 | 54 | 1015.0 |
| 20260504203053 | 25 | 236 | 1.6 | 9.7 | 0.00 | 0.00 | 0.00 | 50 | 1015.0 |
| 20260504201550 | 25 | 242 | 3.2 | 9.7 | 0.00 | 0.00 | 0.00 | 51 | 1015.2 |
| 20260504200047 | 25 | 255 | 0.0 | 6.4 | 0.00 | 0.00 | 0.00 | 50 | 1015.6 |
| 20260504194546 | 25 | 245 | 0.0 | 12.9 | 0.00 | 0.00 | 0.00 | 53 | 1015.8 |
| 20260504193058 | 25 | 227 | 1.6 | 12.9 | 0.00 | 0.00 | 0.00 | 53 | 1016.2 |
| 20260504191542 | 25 | 212 | 0.0 | 8.0 | 0.00 | 0.00 | 0.00 | 48 | 1016.5 |
| 20260504190044 | 25 | 241 | 0.0 | 4.8 | 0.00 | 0.00 | 0.00 | 49 | 1016.9 |
| 20260504184543 | 25 | 232 | 0.0 | 3.2 | 0.00 | 0.00 | 0.00 | 53 | 1016.7 |
| 20260504183052 | 25 | 234 | 0.0 | 6.4 | 0.00 | 0.00 | 0.00 | 51 | 1016.8 |
| 20260504181538 | 25 | 270 | 0.0 | 8.0 | 0.00 | 0.00 | 0.00 | 51 | 1017.2 |
| 20260504180056 | 25 | 250 | 1.6 | 9.7 | 0.00 | 0.00 | 0.00 | 52 | 1017.2 |
| 20260504174536 | 25 | 222 | 0.0 | 9.7 | 0.00 | 0.00 | 0.00 | 49 | 1017.4 |
| 20260504173032 | 25 | 257 | 0.0 | 6.4 | 0.00 | 0.00 | 0.00 | 51 | 1017.4 |
| 20260504171531 | 25 | 241 | 0.0 | 4.8 | 0.00 | 0.00 | 0.00 | 50 | 1017.7 |
| 20260504081522 | 10 | 276 | 0.0 | 0.0 | 0.00 | 0.00 | 0.00 | 96 | 1018.0 |
| 20260504050113 | 12 | 276 | 0.0 | 0.0 | 0.00 | 0.00 | 0.00 | 94 | 1019.4 |
| 20260504044557 | 12 | 276 | 0.0 | 0.0 | 0.00 | 0.00 | 0.00 | 94 | 1019.5 |
| 20260504043104 | 12 | 276 | 0.0 | 0.0 | 0.00 | 0.00 | 0.00 | 94 | 1019.7 |
| 20260504041559 | 12 | 276 | 0.0 | 0.0 | 0.00 | 0.00 | 0.00 | 92 | 1019.8 |
| 20260504040103 | 12 | 276 | 0.0 | 0.0 | 0.00 | 0.00 | 0.00 | 92 | 1019.8 |
| 20260504034610 | 12 | 276 | 0.0 | 0.0 | 0.00 | 0.00 | 0.00 | 92 | 1019.8 |
| 20260504033058 | 13 | 276 | 0.0 | 0.0 | 0.00 | 0.00 | 0.00 | 92 | 1019.9 |
| 20260504031602 | 13 | 276 | 0.0 | 0.0 | 0.00 | 0.00 | 0.00 | 90 | 1019.8 |
| 20260504030053 | 13 | 276 | 0.0 | 0.0 | 0.00 | 0.00 | 0.00 | 90 | 1019.7 |
| 20260504024557 | 14 | 276 | 0.0 | 0.0 | 0.00 | 0.00 | 0.00 | 89 | 1019.7 |
| 20260504023053 | 14 | 276 | 0.0 | 0.0 | 0.00 | 0.00 | 0.00 | 88 | 1019.7 |
| 20260504021556 | 15 | 276 | 0.0 | 0.0 | 0.00 | 0.00 | 0.00 | 86 | 1019.5 |
| 20260504014553 | 15 | 276 | 0.0 | 0.0 | 0.00 | 0.00 | 0.00 | 83 | 1018.9 |
| 20260504013051 | 16 | 276 | 0.0 | 0.0 | 0.00 | 0.00 | 0.00 | 80 | 1018.7 |
| 20260504011550 | 16 | 276 | 0.0 | 0.0 | 0.00 | 0.00 | 0.00 | 76 | 1018.6 |
| 20260504010049 | 17 | 276 | 0.0 | 0.0 | 0.00 | 0.00 | 0.00 | 76 | 1018.6 |
| 20260504004549 | 18 | 276 | 0.0 | 0.0 | 0.00 | 0.00 | 0.00 | 72 | 1018.5 |
| 20260504003049 | 20 | 276 | 0.0 | 0.0 | 0.00 | 0.00 | 0.00 | 69 | 1018.5 |
| 20260504001548 | 20 | 276 | 0.0 | 0.0 | 0.00 | 0.00 | 0.00 | 66 | 1018.4 |
| 20260504000051 | 22 | 276 | 0.0 | 0.0 | 0.00 | 0.00 | 0.00 | 63 | 1018.4 |
| 20260503234546 | 22 | 276 | 0.0 | 0.0 | 0.00 | 0.00 | 0.00 | 51 | 1018.5 |
| 20260503233044 | 22 | 276 | 0.0 | 0.0 | 0.00 | 0.00 | 0.00 | 49 | 1018.5 |
| 20260503231544 | 22 | 276 | 0.0 | 1.6 | 0.00 | 0.00 | 0.00 | 44 | 1018.5 |
| 20260503224542 | 23 | 275 | 0.0 | 1.6 | 0.00 | 0.00 | 0.00 | 45 | 1018.7 |
| 20260503223041 | 23 | 213 | 0.0 | 8.0 | 0.00 | 0.00 | 0.00 | 45 | 1018.9 |
| 20260503221539 | 23 | 277 | 0.0 | 4.8 | 0.00 | 0.00 | 0.00 | 42 | 1018.9 |